[[{"header":{"parameterUnit":"m.s-1","parameterCategory":1,"la1":30.2991,"la2":30.254,"lo1":-89.0895,"lo2":-89.0444,"dy":0.0017,"dx":0.0017,"nx":28,"ny":28,"refTime":"2023-09-02T09:00:00:Z","depth":0,"parameterNumber":2,"parameterNumberName":"U-component_of_WINDS"},"data":[0,0,0,0,0,0,0,0,0,0,0,0,0,0,0,0,0,0,0,0,0,0,0,0,0,0,0,0,0,0,0,0,0,0,0,0,0,0,0,0,0,0,0,0,0,0,0,0,0,0,0,0,0,0,0,0,0,0,-3.5641,-3.5641,0,-3.5614,-3.5613,-3.5613,-3.5515,-3.5513,-3.5511,-3.5509,-3.5483,-3.5484,-3.5485,0,0,0,0,0,0,0,0,0,0,0,0,0,-3.5611,-3.5612,-3.5641,-3.5641,-3.564,-3.5614,-3.5613,-3.5613,-3.5516,-3.5513,-3.551,-3.5508,-3.5482,-3.5484,-3.5486,0,0,0,0,0,0,0,0,0,0,0,0,0,-3.5608,-3.5612,-3.5641,-3.5588,-3.5583,-3.5614,-3.5613,-3.5613,-3.5516,-3.5513,-3.551,-3.5506,-3.5482,-3.5484,-3.5486,-3.5565,0,0,-3.5492,-3.5493,0,0,0,0,0,0,0,0,-3.5608,-3.5609,-3.5597,-3.5592,-3.5587,-3.5564,-3.5593,-3.5597,-3.5517,-3.5542,-3.5509,-3.5505,-3.5513,-3.5512,-3.5514,-3.5564,-3.5563,-3.5492,-3.5494,-3.5494,-3.5495,0,0,0,0,0,0,0,-3.5609,-3.561,-3.563,-3.5596,-3.559,-3.5567,-3.5563,-3.5593,-3.5546,-3.5539,-3.5532,-3.553,-3.5509,-3.5513,-3.5513,-3.5562,-3.5492,-3.5494,-3.5495,-3.5496,-3.5674,-3.5677,0,0,0,0,0,0,-3.5616,-3.5611,-3.5631,-3.5629,-3.5589,-3.557,-3.5566,-3.5575,-3.5546,-3.5538,-3.5533,-3.5526,-3.5511,-3.5511,-3.5512,-3.56,-3.5494,-3.5496,-3.5498,-3.567,-3.5675,-3.5678,0,0,0,0,0,0,-3.5616,-3.5619,-3.5632,-3.5618,-3.5618,-3.5574,-3.5586,-3.5576,-3.5579,-3.5541,-3.5532,-3.5545,-3.5508,-3.5509,-3.5552,-3.5597,-3.5497,-3.5499,-3.5666,-3.5672,-3.5677,-3.5778,0,0,0,0,0,0,-3.5615,-3.5619,-3.5648,-3.5619,-3.5619,-3.5672,-3.5588,-3.5578,-3.5583,-3.5573,-3.5549,-3.5542,-3.5505,-3.5549,-3.5554,-3.5598,-3.5501,-3.5662,-3.5669,-3.5675,-3.5771,-3.5786,-3.58,0,0,0,0,0,-3.5615,-3.5679,-3.565,-3.5653,-3.5654,-3.5675,-3.5675,-3.563,-3.5587,-3.5615,-3.5591,-3.5543,-3.5593,-3.5555,-3.5559,-3.5605,-3.5659,-3.5667,-3.5674,-3.5764,-3.5783,-3.58,0,0,0,0,0,0,-3.5715,-3.5674,-3.5642,-3.5699,-3.5691,-3.5659,-3.5693,-3.5653,-3.5658,-3.5648,-3.5594,-3.559,-3.564,-3.5628,-3.5585,-3.5679,-3.5618,-3.5627,-3.5684,-3.5702,-3.5717,-3.5717,-3.5503,0,0,0,0,0,-3.5744,-3.5763,-3.5727,-3.5781,-3.5779,-3.5737,-3.5745,-3.5711,-3.5701,-3.5698,-3.5676,-3.5669,-3.5683,-3.5693,-3.5704,-3.577,-3.5762,-3.5804,-3.5819,-3.5831,-3.5838,-3.587,-3.5887,-3.5704,-3.5704,-3.5704,0,0,-3.5803,-3.5783,-3.5799,-3.58,-3.579,-3.5812,-3.5735,-3.5761,-3.5776,-3.5702,-3.5739,-3.5725,-3.5713,-3.5768,-3.5791,-3.5759,-3.5888,-3.5841,-3.5851,-3.5851,-3.588,-3.5897,-3.5912,-3.571,-3.5709,-3.5708,0,0,-3.592,-3.5909,-3.595,-3.5942,-3.5928,-3.59,-3.5911,-3.5885,-3.5871,-3.5909,-3.5853,-3.5872,-3.5897,-3.589,-3.589,-3.6008,-3.5963,-3.6014,-3.6088,-3.612,-3.6134,-3.6146,-3.6184,-3.6199,-3.6022,-3.6022,-3.6022,0,-3.5995,-3.6024,-3.5978,-3.6007,-3.6008,-3.5943,-3.5984,-3.5979,-3.597,-3.5973,-3.5938,-3.5967,-3.5955,-3.6006,-3.6034,-3.6038,-3.6047,-3.6013,-3.6136,-3.6148,-3.6158,-3.6194,-3.6209,-3.6028,-3.6027,-3.6026,-3.6026,0,-3.6116,-3.6137,-3.6173,-3.6164,-3.6171,-3.6206,-3.6165,-3.6178,-3.6145,-3.6121,-3.616,-3.6144,-3.6149,-3.616,-3.6129,-3.6207,-3.6187,-3.6145,-3.6081,-3.6182,-3.6215,-3.6229,-3.6036,-3.6034,-3.6032,-3.6031,0,0,-3.6291,-3.6257,-3.627,-3.6265,-3.6245,-3.6261,-3.6295,-3.6299,-3.6309,-3.6307,-3.6332,-3.6356,-3.6317,-3.6317,-3.6285,-3.6314,-3.6404,-3.6268,-3.6267,-3.629,-3.6485,-3.6512,-3.6529,-3.6376,-3.6379,-3.6381,-3.6484,0,-3.6399,-3.6451,-3.6411,-3.6471,-3.6489,-3.6428,-3.6457,-3.6449,-3.6428,-3.6441,-3.642,-3.6436,-3.6385,-3.6384,-3.641,-3.6387,-3.6441,-3.638,-3.6397,-3.6398,-3.6396,-3.6547,-3.6576,-3.6674,-3.6497,-3.6499,-3.6501,0,-3.6531,-3.6532,-3.6593,-3.6569,-3.6575,-3.6601,-3.6601,-3.6616,-3.6605,-3.6589,-3.659,-3.655,-3.6582,-3.6523,-3.6564,-3.6524,-3.6529,-3.652,-3.6522,-3.6518,-3.6452,-3.6542,-3.6705,-3.6718,-3.6521,-3.652,-3.6518,0,-3.6647,-3.6665,-3.6703,-3.6701,-3.6675,-3.6694,-3.6685,-3.6671,-3.6676,-3.6678,-3.668,-3.6687,-3.6689,-3.6695,-3.6658,-3.662,-3.6704,-3.6643,-3.6688,-3.6689,-3.6704,-3.6703,-3.6865,-3.6717,-3.6717,-3.6716,-3.6716,0,-3.6769,-3.6808,-3.6754,-3.6777,-3.6819,-3.6774,-3.6817,-3.6801,-3.679,-3.6809,-3.676,-3.6778,-3.6731,-3.6746,-3.6719,-3.6755,-3.6758,-3.6744,-3.6735,-3.6746,-3.6747,-3.6744,-3.6735,-3.672,-3.6719,-3.6719,-3.6718,0,-3.6903,-3.687,-3.6906,-3.6879,-3.6873,-3.6905,-3.6881,-3.6902,-3.6879,-3.6904,-3.6907,-3.6872,-3.6887,-3.6852,-3.6863,-3.6844,-3.6895,-3.6878,-3.6898,-3.6891,-3.6937,-3.6931,-3.7099,-3.7118,-3.6962,-3.6964,-3.6965,0,-3.698,-3.7008,-3.6984,-3.6992,-3.6985,-3.7,-3.7004,-3.6963,-3.697,-3.6961,-3.6982,-3.6993,-3.6997,-3.7024,-3.7,-3.7007,-3.6987,-3.7046,-3.6987,-3.6996,-3.6982,-3.6979,-3.698,-3.7056,-3.7058,-3.7059,-3.7061,0,-3.7119,-3.7101,-3.7109,-3.7112,-3.7119,-3.7119,-3.7116,-3.7127,-3.7082,-3.7093,-3.7106,-3.7111,-3.7121,-3.7131,-3.7133,-3.7124,-3.7084,-3.708,-3.709,-3.7098,-3.7106,-3.7098,-3.6925,-3.7075,-3.7073,-3.7072,-3.7072,-3.7071,-3.7223,-3.7245,-3.723,-3.7241,-3.7234,-3.7233,-3.725,-3.723,-3.724,-3.7243,-3.722,-3.7238,-3.7228,-3.7226,-3.7222,-3.7236,-3.7209,-3.7225,-3.7228,-3.7231,-3.7237,-3.7109,-3.7237,-3.7236,-3.7236,-3.7235,-3.7235,0,-3.7355,-3.7344,-3.7354,-3.7351,-3.7359,-3.7324,-3.7319,-3.7328,-3.7344,-3.7338,-3.7344,-3.736,-3.737,-3.7348,-3.7354,-3.737,-3.7352,-3.7373,-3.7368,-3.7366,-3.7262,-3.725,-3.7387,-3.7387,-3.7387,-3.7387,-3.7387,-3.7387,-3.7425,-3.7457,-3.7439,-3.7468,-3.7456,-3.7473,-3.7473,-3.7471,-3.7466,-3.7485,-3.7492,-3.7478,-3.7465,-3.747,-3.7478,-3.7471,-3.7474,-3.75,-3.7487,-3.7389,-3.7374,-3.736,-3.7348,-3.7503,-3.7503,-3.7589,-3.759,-3.759]},{"header":{"parameterUnit":"m.s-1","parameterCategory":1,"la1":30.2991,"la2":30.254,"lo1":-89.0895,"lo2":-89.0444,"dy":0.0017,"dx":0.0017,"nx":28,"ny":28,"refTime":"2023-09-02T09:00:00:Z","depth":0,"parameterNumber":3,"parameterNumberName":"V-component_of_WINDS"},"data":[0,0,0,0,0,0,0,0,0,0,0,0,0,0,0,0,0,0,0,0,0,0,0,0,0,0,0,0,0,0,0,0,0,0,0,0,0,0,0,0,0,0,0,0,0,0,0,0,0,0,0,0,0,0,0,0,0,0,0.6819,0.6819,0,0.6842,0.6842,0.6843,0.6811,0.681,0.6809,0.6808,0.6834,0.6835,0.6837,0,0,0,0,0,0,0,0,0,0,0,0,0,0.6749,0.6751,0.6819,0.6819,0.6819,0.6842,0.6842,0.6843,0.6811,0.681,0.6809,0.6807,0.6833,0.6835,0.6837,0,0,0,0,0,0,0,0,0,0,0,0,0,0.6777,0.6751,0.6818,0.6806,0.6805,0.6842,0.6842,0.6843,0.6812,0.681,0.6808,0.6807,0.6832,0.6835,0.6838,0.6888,0,0,0.6846,0.6847,0,0,0,0,0,0,0,0,0.6775,0.6779,0.6808,0.6807,0.6806,0.6822,0.6827,0.6858,0.6812,0.6809,0.6808,0.6806,0.6831,0.6834,0.6842,0.6889,0.689,0.6846,0.6847,0.6848,0.6849,0,0,0,0,0,0,0,0.6773,0.6778,0.6828,0.6808,0.6807,0.68,0.6802,0.6833,0.683,0.6809,0.6807,0.681,0.6831,0.684,0.6842,0.689,0.6846,0.6848,0.685,0.6851,0.6982,0.6983,0,0,0,0,0,0,0.6773,0.6777,0.6827,0.6829,0.6786,0.6803,0.6805,0.6819,0.6829,0.6829,0.6812,0.6809,0.6836,0.6839,0.6843,0.6903,0.6848,0.6851,0.6852,0.698,0.6982,0.6984,0,0,0,0,0,0,0.6771,0.6777,0.6826,0.6802,0.6808,0.6806,0.6821,0.682,0.6829,0.6831,0.683,0.6821,0.6835,0.684,0.6877,0.6904,0.6852,0.6854,0.6977,0.698,0.6983,0.7024,0,0,0,0,0,0,0.6769,0.6777,0.6795,0.6803,0.6809,0.6859,0.6823,0.6822,0.6833,0.683,0.684,0.684,0.6834,0.6873,0.688,0.6907,0.6856,0.6975,0.6979,0.6982,0.702,0.7028,0.7034,0,0,0,0,0,0.6767,0.6806,0.6796,0.6803,0.6832,0.686,0.6864,0.6856,0.6836,0.6855,0.6856,0.684,0.69,0.6878,0.6884,0.6912,0.6973,0.6978,0.6982,0.7017,0.7026,0.7034,0,0,0,0,0,0,0.6802,0.6807,0.6796,0.6838,0.6849,0.6855,0.6878,0.6866,0.6883,0.6879,0.6868,0.6871,0.6911,0.6916,0.689,0.6963,0.6934,0.6939,0.6958,0.6967,0.6974,0.6972,0.6859,0,0,0,0,0,0.6814,0.6836,0.684,0.6877,0.6883,0.688,0.6892,0.6885,0.6896,0.69,0.6905,0.6917,0.6938,0.6953,0.6973,0.7021,0.7024,0.7044,0.7051,0.7057,0.7062,0.7089,0.7099,0.6998,0.6998,0.6998,0,0,0.684,0.6846,0.686,0.6884,0.6892,0.6916,0.6884,0.691,0.6929,0.6905,0.694,0.6944,0.6957,0.7,0.702,0.7005,0.7091,0.7062,0.7067,0.7069,0.7095,0.7104,0.7112,0.7001,0.7001,0.7,0,0,0.69,0.6906,0.6938,0.6947,0.6959,0.6957,0.6965,0.6973,0.6975,0.701,0.6993,0.7016,0.7053,0.7063,0.7073,0.7139,0.7125,0.7146,0.7183,0.721,0.7218,0.7225,0.7249,0.7258,0.7152,0.7152,0.7152,0,0.6931,0.6966,0.6957,0.6985,0.6996,0.6976,0.7009,0.7018,0.7036,0.7045,0.7029,0.7076,0.7083,0.7129,0.7146,0.7155,0.7164,0.7145,0.7217,0.7224,0.7231,0.7254,0.7263,0.7154,0.7154,0.7154,0.7153,0,0.7004,0.7029,0.7054,0.7072,0.7086,0.7116,0.7113,0.7129,0.7121,0.7121,0.7159,0.7167,0.7189,0.7199,0.7192,0.7245,0.7236,0.7219,0.7189,0.7243,0.7264,0.7273,0.7158,0.7157,0.7156,0.7156,0,0,0.7085,0.7099,0.7108,0.7116,0.7129,0.7148,0.7179,0.72,0.7215,0.7229,0.7254,0.7288,0.7272,0.7284,0.7278,0.7301,0.7354,0.7281,0.7281,0.7295,0.7414,0.7427,0.7437,0.7345,0.7347,0.7348,0.7413,0,0.7145,0.7197,0.719,0.724,0.7264,0.7246,0.7273,0.7284,0.7286,0.7307,0.7309,0.7333,0.731,0.7317,0.734,0.7343,0.7378,0.7338,0.737,0.7371,0.7367,0.7449,0.7462,0.7523,0.7422,0.7423,0.7424,0,0.7222,0.7239,0.7291,0.7302,0.7311,0.7335,0.7355,0.7375,0.7388,0.7388,0.7402,0.7392,0.7424,0.7395,0.7439,0.7412,0.7425,0.7429,0.7431,0.7434,0.7401,0.7453,0.7542,0.7552,0.7437,0.7436,0.7435,0,0.7276,0.7312,0.7348,0.7356,0.7369,0.7387,0.7393,0.7405,0.7418,0.7436,0.7445,0.7467,0.7479,0.7496,0.7493,0.7472,0.7539,0.7509,0.7541,0.7541,0.7555,0.7554,0.7647,0.7564,0.7564,0.7563,0.7563,0,0.7344,0.7377,0.7373,0.7395,0.7432,0.7425,0.7462,0.7466,0.7477,0.7501,0.7487,0.751,0.7505,0.7528,0.7526,0.7564,0.7569,0.7571,0.757,0.7572,0.7572,0.758,0.7576,0.7566,0.7565,0.7565,0.7564,0,0.741,0.7409,0.7447,0.7457,0.746,0.7487,0.7496,0.7518,0.7519,0.7549,0.7556,0.7558,0.7585,0.7584,0.7614,0.7613,0.766,0.7654,0.7655,0.7654,0.7685,0.7683,0.7787,0.7801,0.7708,0.7709,0.771,0,0.7453,0.7478,0.7491,0.7506,0.7513,0.7537,0.7552,0.7546,0.7562,0.758,0.76,0.7625,0.7645,0.7689,0.7694,0.7717,0.7712,0.7747,0.7715,0.7717,0.7713,0.7712,0.7715,0.7753,0.7754,0.7755,0.7756,0,0.753,0.7529,0.755,0.7571,0.7588,0.7605,0.762,0.7633,0.7629,0.7648,0.7675,0.769,0.7722,0.7748,0.7771,0.7778,0.7767,0.7766,0.7775,0.7777,0.7777,0.7778,0.7672,0.7763,0.7763,0.7762,0.7762,0.7761,0.7587,0.7609,0.7621,0.7645,0.7656,0.7671,0.7692,0.7697,0.7719,0.7743,0.7739,0.777,0.7785,0.7814,0.7824,0.7849,0.7837,0.7849,0.7852,0.7855,0.7859,0.7773,0.7853,0.7853,0.7853,0.7853,0.7852,0,0.7663,0.7671,0.7693,0.7715,0.7734,0.7722,0.7739,0.7756,0.7783,0.7797,0.7817,0.7849,0.7875,0.7882,0.7907,0.7926,0.7922,0.7933,0.7931,0.7934,0.7868,0.7859,0.7936,0.7936,0.7936,0.7936,0.7936,0.7936,0.7705,0.7742,0.7743,0.7785,0.7793,0.7822,0.7833,0.7847,0.7859,0.7895,0.7916,0.7921,0.7933,0.7959,0.7982,0.7984,0.7994,0.8008,0.8007,0.7946,0.7938,0.793,0.7921,0.801,0.801,0.8071,0.8071,0.8072]}]]